Location: Praha
(50.0830°N, 14.4670°E)
Time: 15:52:32
(UTC+02:00)

ISS - Pass Details

Date: 25 May 2018
Orbit: 402 x 408 km, 51.6° (Epoch: 18 September)

Event Time Altitude Azimuth Distance (km) Brightness Sun altitude
Rises 01:59:34 0° 287° (WNW) 2,321 0.1 -17.8°
Reaches altitude 10° 02:01:42 10° 281° (W) 1,459 -1.1 -17.7°
Enters shadow 02:03:10 23° 269° (W) 910 -2.2 -17.6°
